Location: Chowchilla Mountain
(37.5599°N, 119.7546°W)
Time: 23:12:18
(UTC+00:00)

Thor Agena Rocket - Pass Details

Date: 05 August 2024
Orbit: 756 x 805 km, 99.1° (Epoch: 08 September)

Event Time Altitude Azimuth Distance (km) Brightness Sun altitude
Rises 12:02:05 0° 13° (NNE) 3,229 7.5 -12.3°
Reaches altitude 10° 12:04:24 10° 14° (NNE) 2,295 6.7 -11.9°
Maximum altitude 12:09:27 88° 103° (ESE) 762 3.5 -11.0°
Drops below altitude 10° 12:14:27 10° 195° (SSW) 2,275 5.5 -10.2°
Enters shadow 12:16:14 - 195° (SSW) 2,989 6.1 -9.9°
